| time (UTC) | temp F | wind direction | speed MPH | gust MPH | rain 1hr in | rain 24hr in | rain mn in | humidity % | barometer mb |
| 20260831074005 | 66 | 235 | 0.0 | 0.0 | 0.01 | 0.03 | 0.01 | 99 | 1024.2 |
| 20260831073005 | 66 | 235 | 0.0 | 0.0 | 0.01 | 0.03 | 0.01 | 99 | 1024.1 |
| 20260831072005 | 66 | 235 | 0.0 | 0.0 | 0.01 | 0.03 | 0.01 | 99 | 1024.3 |
| 20260831071006 | 66 | 235 | 0.0 | 0.0 | 0.01 | 0.03 | 0.01 | 99 | 1024.2 |
| 20260831070006 | 66 | 235 | 0.0 | 1.0 | 0.00 | 0.02 | 0.00 | 99 | 1024.3 |
| 20260831064006 | 66 | 235 | 0.0 | 0.0 | 0.00 | 0.02 | 0.00 | 99 | 1024.5 |
| 20260831063005 | 66 | 235 | 0.0 | 0.0 | 0.00 | 0.02 | 0.00 | 99 | 1024.4 |
| 20260831061006 | 66 | 235 | 0.0 | 0.0 | 0.00 | 0.02 | 0.00 | 99 | 1024.6 |
| 20260831060006 | 66 | 235 | 0.0 | 0.0 | 0.00 | 0.02 | 0.00 | 99 | 1024.6 |
| 20260831055006 | 66 | 235 | 0.0 | 0.0 | 0.00 | 0.02 | 0.00 | 99 | 1024.6 |
| 20260831054005 | 66 | 235 | 0.0 | 0.0 | 0.00 | 0.02 | 0.00 | 98 | 1024.7 |
| 20260831053006 | 66 | 235 | 0.0 | 0.0 | 0.00 | 0.02 | 0.00 | 98 | 1024.6 |
| 20260831050005 | 66 | 235 | 0.0 | 0.0 | 0.00 | 0.02 | 0.00 | 98 | 1024.5 |
| 20260831045007 | 66 | 235 | 0.0 | 0.0 | 0.00 | 0.02 | 0.00 | 98 | 1024.5 |
| 20260831044006 | 66 | 235 | 0.0 | 0.0 | 0.00 | 0.02 | 0.00 | 98 | 1024.6 |
| 20260831043006 | 66 | 235 | 0.0 | 1.0 | 0.00 | 0.02 | 0.00 | 98 | 1024.5 |
| 20260831040006 | 66 | 235 | 0.0 | 0.0 | 0.00 | 0.02 | 0.00 | 98 | 1024.8 |
| 20260831035006 | 66 | 235 | 0.0 | 0.0 | 0.00 | 0.02 | 0.02 | 98 | 1024.8 |
| 20260831034006 | 66 | 235 | 0.0 | 0.0 | 0.00 | 0.02 | 0.02 | 98 | 1024.8 |
| 20260831033007 | 65 | 235 | 0.0 | 0.0 | 0.00 | 0.02 | 0.02 | 97 | 1024.7 |
| 20260831032006 | 66 | 235 | 0.0 | 0.0 | 0.00 | 0.02 | 0.02 | 98 | 1024.7 |
| 20260831030016 | 66 | 235 | 0.0 | 0.0 | 0.00 | 0.02 | 0.02 | 97 | 1024.7 |
| 20260831024007 | 66 | 235 | 0.0 | 0.0 | 0.00 | 0.02 | 0.02 | 97 | 1024.8 |
| 20260831023007 | 66 | 235 | 0.0 | 0.0 | 0.00 | 0.02 | 0.02 | 97 | 1024.7 |
| 20260831022008 | 66 | 235 | 0.0 | 0.0 | 0.00 | 0.02 | 0.02 | 97 | 1024.8 |
| 20260831021008 | 66 | 235 | 0.0 | 0.0 | 0.00 | 0.02 | 0.02 | 97 | 1024.9 |
| 20260831020012 | 66 | 235 | 0.0 | 0.0 | 0.00 | 0.02 | 0.02 | 97 | 1025.0 |
| 20260831014002 | 66 | 235 | 0.0 | 0.0 | 0.00 | 0.02 | 0.02 | 97 | 1025.0 |
| 20260831013002 | 66 | 235 | 0.0 | 0.0 | 0.00 | 0.02 | 0.02 | 96 | 1024.9 |
| 20260831012003 | 66 | 235 | 0.0 | 0.0 | 0.00 | 0.02 | 0.02 | 96 | 1024.9 |
| 20260831010003 | 66 | 235 | 0.0 | 0.0 | 0.00 | 0.02 | 0.02 | 96 | 1024.8 |
| 20260831004003 | 66 | 235 | 0.0 | 0.0 | 0.00 | 0.02 | 0.02 | 95 | 1024.3 |
| 20260831003003 | 66 | 235 | 0.0 | 2.0 | 0.00 | 0.02 | 0.02 | 95 | 1024.0 |
| 20260831001002 | 67 | 235 | 0.0 | 3.0 | 0.00 | 0.02 | 0.02 | 93 | 1023.9 |
| 20260831000002 | 67 | 70 | 0.0 | 2.0 | 0.00 | 0.02 | 0.02 | 93 | 1023.9 |
| 20260830235002 | 67 | 49 | 0.0 | 0.0 | 0.00 | 0.02 | 0.02 | 93 | 1023.8 |
| 20260830234003 | 67 | 49 | 0.0 | 1.0 | 0.00 | 0.02 | 0.02 | 93 | 1023.8 |
| 20260830233002 | 68 | 162 | 0.0 | 2.0 | 0.00 | 0.02 | 0.02 | 92 | 1023.9 |
| 20260830232003 | 68 | 162 | 1.0 | 3.0 | 0.00 | 0.02 | 0.02 | 92 | 1023.7 |
| 20260830231002 | 68 | 154 | 1.0 | 2.0 | 0.00 | 0.02 | 0.02 | 92 | 1023.8 |
| 20260830230002 | 68 | 275 | 0.0 | 1.0 | 0.00 | 0.02 | 0.02 | 92 | 1023.9 |
| 20260830225002 | 68 | 275 | 0.0 | 2.0 | 0.00 | 0.02 | 0.02 | 92 | 1024.0 |
| 20260830223003 | 69 | 46 | 0.0 | 3.0 | 0.00 | 0.02 | 0.02 | 92 | 1024.1 |
| 20260830222004 | 69 | 200 | 1.0 | 2.0 | 0.00 | 0.02 | 0.02 | 92 | 1024.0 |
| 20260830221003 | 69 | 36 | 0.0 | 3.0 | 0.00 | 0.02 | 0.02 | 92 | 1024.1 |
| 20260830220003 | 69 | 134 | 1.0 | 3.0 | 0.00 | 0.02 | 0.02 | 92 | 1024.0 |
| 20260830215002 | 69 | 241 | 0.0 | 3.0 | 0.00 | 0.02 | 0.02 | 93 | 1024.1 |
| 20260830213003 | 68 | 128 | 0.0 | 1.0 | 0.00 | 0.02 | 0.02 | 93 | 1023.9 |
| 20260830212002 | 68 | 135 | 0.0 | 2.0 | 0.00 | 0.02 | 0.02 | 93 | 1024.0 |
| 20260830211004 | 68 | 181 | 0.0 | 2.0 | 0.00 | 0.02 | 0.02 | 93 | 1024.0 |
| 20260830210003 | 68 | 182 | 1.0 | 2.0 | 0.00 | 0.02 | 0.02 | 93 | 1024.0 |
| 20260830205002 | 68 | 110 | 0.0 | 5.0 | 0.00 | 0.02 | 0.02 | 92 | 1024.1 |
| 20260830204002 | 68 | 235 | 0.0 | 7.0 | 0.00 | 0.02 | 0.02 | 92 | 1024.1 |
| 20260830203003 | 69 | 97 | 1.0 | 5.0 | 0.00 | 0.02 | 0.02 | 92 | 1024.2 |
| 20260830201004 | 69 | 106 | 1.0 | 3.0 | 0.00 | 0.02 | 0.02 | 94 | 1024.1 |
| 20260830200002 | 70 | 233 | 0.0 | 3.0 | 0.00 | 0.02 | 0.02 | 94 | 1024.1 |
| 20260830195002 | 70 | 239 | 1.0 | 2.0 | 0.00 | 0.02 | 0.02 | 95 | 1024.3 |
| 20260830194003 | 70 | 239 | 0.0 | 3.0 | 0.00 | 0.02 | 0.02 | 96 | 1024.2 |
| 20260830193003 | 70 | 300 | 0.0 | 1.0 | 0.00 | 0.02 | 0.02 | 96 | 1024.3 |
| 20260830192003 | 70 | 307 | 1.0 | 3.0 | 0.00 | 0.02 | 0.02 | 97 | 1024.4 |
| 20260830191003 | 70 | 219 | 1.0 | 2.0 | 0.00 | 0.02 | 0.02 | 96 | 1024.5 |
| 20260830190003 | 69 | 218 | 0.0 | 2.0 | 0.00 | 0.02 | 0.02 | 96 | 1024.7 |
| 20260830185003 | 69 | 218 | 1.0 | 2.0 | 0.00 | 0.02 | 0.02 | 96 | 1024.6 |
| 20260830184002 | 69 | 218 | 0.0 | 1.0 | 0.00 | 0.02 | 0.02 | 96 | 1024.7 |
| 20260830183002 | 69 | 218 | 0.0 | 1.0 | 0.00 | 0.02 | 0.02 | 96 | 1024.9 |
| 20260830180004 | 68 | 218 | 0.0 | 1.0 | 0.00 | 0.02 | 0.02 | 97 | 1025.0 |
| 20260830175004 | 68 | 218 | 0.0 | 2.0 | 0.00 | 0.02 | 0.02 | 98 | 1025.1 |
| 20260830174003 | 68 | 167 | 0.0 | 0.0 | 0.00 | 0.02 | 0.02 | 98 | 1025.0 |
| 20260830173003 | 68 | 167 | 0.0 | 2.0 | 0.00 | 0.02 | 0.02 | 98 | 1025.0 |
| 20260830172004 | 68 | 277 | 0.0 | 1.0 | 0.00 | 0.02 | 0.02 | 98 | 1025.0 |
| 20260830171003 | 68 | 277 | 0.0 | 2.0 | 0.00 | 0.02 | 0.02 | 98 | 1025.0 |
| 20260830170004 | 67 | 136 | 0.0 | 0.0 | 0.00 | 0.02 | 0.02 | 98 | 1025.0 |
| 20260830165004 | 67 | 136 | 0.0 | 0.0 | 0.00 | 0.02 | 0.02 | 98 | 1025.0 |
| 20260830164003 | 67 | 136 | 0.0 | 1.0 | 0.00 | 0.02 | 0.02 | 98 | 1025.0 |
| 20260830163003 | 67 | 136 | 0.0 | 2.0 | 0.00 | 0.02 | 0.02 | 98 | 1025.1 |
| 20260830162003 | 67 | 275 | 0.0 | 2.0 | 0.00 | 0.02 | 0.02 | 98 | 1025.1 |
| 20260830161005 | 67 | 248 | 1.0 | 3.0 | 0.00 | 0.02 | 0.02 | 98 | 1025.3 |
| 20260830160005 | 67 | 139 | 0.0 | 1.0 | 0.01 | 0.02 | 0.02 | 98 | 1025.3 |
| 20260830155003 | 67 | 200 | 0.0 | 2.0 | 0.01 | 0.02 | 0.02 | 98 | 1025.3 |
| 20260830154004 | 66 | 204 | 0.0 | 0.0 | 0.02 | 0.02 | 0.02 | 97 | 1025.3 |
| 20260830153003 | 66 | 204 | 0.0 | 0.0 | 0.02 | 0.02 | 0.02 | 97 | 1025.2 |
| 20260830152003 | 66 | 204 | 0.0 | 0.0 | 0.02 | 0.02 | 0.02 | 96 | 1025.3 |
| 20260830151005 | 66 | 204 | 0.0 | 0.0 | 0.02 | 0.02 | 0.02 | 96 | 1025.2 |
| 20260830150003 | 66 | 204 | 0.0 | 0.0 | 0.01 | 0.01 | 0.01 | 96 | 1025.1 |
| 20260830145004 | 66 | 204 | 0.0 | 0.0 | 0.01 | 0.01 | 0.01 | 96 | 1025.0 |
| 20260830143003 | 66 | 204 | 0.0 | 0.0 | 0.00 | 0.00 | 0.00 | 96 | 1024.8 |
| 20260830142003 | 66 | 204 | 0.0 | 0.0 | 0.00 | 0.00 | 0.00 | 96 | 1024.7 |
| 20260830141003 | 66 | 204 | 0.0 | 0.0 | 0.00 | 0.00 | 0.00 | 96 | 1024.5 |
| 20260830140003 | 65 | 204 | 0.0 | 1.0 | 0.00 | 0.00 | 0.00 | 95 | 1024.5 |
| 20260830135003 | 65 | 204 | 1.0 | 2.0 | 0.00 | 0.00 | 0.00 | 95 | 1024.4 |
| 20260830134004 | 65 | 204 | 0.0 | 0.0 | 0.00 | 0.00 | 0.00 | 95 | 1024.5 |
| 20260830133003 | 65 | 204 | 0.0 | 0.0 | 0.00 | 0.00 | 0.00 | 95 | 1024.3 |
| 20260830132003 | 65 | 204 | 0.0 | 0.0 | 0.00 | 0.00 | 0.00 | 96 | 1024.3 |
| 20260830131003 | 65 | 204 | 0.0 | 0.0 | 0.00 | 0.00 | 0.00 | 95 | 1024.4 |
| 20260830125001 | 65 | 204 | 0.0 | 0.0 | 0.00 | 0.00 | 0.00 | 96 | 1024.2 |
| 20260830124002 | 64 | 204 | 0.0 | 0.0 | 0.00 | 0.00 | 0.00 | 96 | 1024.3 |
| 20260830123001 | 64 | 204 | 0.0 | 0.0 | 0.00 | 0.00 | 0.00 | 96 | 1024.4 |
| 20260830122003 | 64 | 204 | 0.0 | 0.0 | 0.00 | 0.00 | 0.00 | 96 | 1024.5 |
| 20260830121001 | 64 | 204 | 0.0 | 0.0 | 0.00 | 0.00 | 0.00 | 96 | 1024.6 |
| 20260830115002 | 64 | 204 | 0.0 | 0.0 | 0.00 | 0.00 | 0.00 | 96 | 1024.4 |
| 20260830113002 | 64 | 204 | 0.0 | 0.0 | 0.00 | 0.00 | 0.00 | 96 | 1024.3 |
| 20260830112002 | 63 | 204 | 0.0 | 0.0 | 0.00 | 0.00 | 0.00 | 96 | 1024.2 |
| 20260830111002 | 63 | 204 | 0.0 | 0.0 | 0.00 | 0.00 | 0.00 | 96 | 1024.3 |
| 20260830104002 | 63 | 204 | 0.0 | 0.0 | 0.00 | 0.00 | 0.00 | 96 | 1024.3 |
| 20260830102003 | 63 | 204 | 0.0 | 0.0 | 0.00 | 0.00 | 0.00 | 96 | 1024.2 |
| 20260830101002 | 63 | 204 | 0.0 | 0.0 | 0.00 | 0.00 | 0.00 | 96 | 1024.3 |
| 20260830100002 | 63 | 204 | 0.0 | 0.0 | 0.00 | 0.00 | 0.00 | 96 | 1024.2 |
| 20260830094003 | 63 | 204 | 0.0 | 0.0 | 0.00 | 0.00 | 0.00 | 96 | 1024.2 |
| 20260830093002 | 63 | 204 | 0.0 | 0.0 | 0.00 | 0.00 | 0.00 | 96 | 1024.2 |
| 20260830092002 | 63 | 204 | 0.0 | 0.0 | 0.00 | 0.00 | 0.00 | 96 | 1024.2 |
| 20260830091002 | 63 | 204 | 0.0 | 0.0 | 0.00 | 0.00 | 0.00 | 96 | 1024.1 |
| 20260830090003 | 63 | 204 | 0.0 | 0.0 | 0.00 | 0.00 | 0.00 | 96 | 1024.1 |
| 20260830085002 | 63 | 204 | 0.0 | 0.0 | 0.00 | 0.00 | 0.00 | 96 | 1024.1 |
| 20260830084003 | 63 | 204 | 0.0 | 0.0 | 0.00 | 0.00 | 0.00 | 96 | 1024.3 |
| 20260830083002 | 62 | 204 | 0.0 | 0.0 | 0.00 | 0.00 | 0.00 | 96 | 1024.1 |
| 20260830082003 | 62 | 204 | 0.0 | 0.0 | 0.00 | 0.00 | 0.00 | 96 | 1024.3 |
| 20260830081002 | 62 | 204 | 0.0 | 0.0 | 0.00 | 0.00 | 0.00 | 96 | 1024.5 |
| 20260830080002 | 62 | 204 | 0.0 | 0.0 | 0.00 | 0.00 | 0.00 | 95 | 1024.6 |
| 20260830075003 | 62 | 204 | 0.0 | 0.0 | 0.00 | 0.00 | 0.00 | 96 | 1024.7 |